GFSFLT1_850_spd_000.txt.gz
Wind_Speed
16 17 15 16 15 16 14 16 15 16 14 14 16 16 10 17 15 13 13 9 8 5 5 10 10 5 9 13 14 12 12 14
9 9 13 16 15 16 17 16 17 19 16 17 15 15 14 15 12 16 12 11 11 7 5 6 5 6 9 12 13 15 15 13
4 3 9 15 16 16 18 16 17 19 17 16 15 16 16 20 17 21 22 15 16 11 8 8 7 10 11 10 12 15 16 16
5 5 8 12 16 17 17 19 19 21 23 19 20 21 24 19 20 19 18 21 19 15 14 13 12 10 10 12 15 18 19 17
6 6 8 10 15 18 19 18 21 22 24 26 24 24 23 22 19 23 26 24 19 15 15 15 15 13 13 14 15 16 20 24
9 10 10 13 12 14 19 20 19 23 26 27 29 30 29 27 24 21 19 17 18 14 15 16 21 17 18 20 21 25 25 25
10 12 12 13 15 15 18 23 25 25 26 29 32 33 32 25 25 25 22 20 18 16 16 19 20 20 21 21 23 23 27 31
8 14 16 15 15 18 21 23 26 27 28 31 34 36 33 32 30 27 23 22 20 21 18 18 25 25 25 26 27 29 30 33
16 16 14 15 13 18 21 26 31 31 31 33 33 35 36 28 29 25 23 23 22 25 21 21 22 26 28 27 29 28 28 29
16 15 15 16 17 21 26 32 34 30 33 35 32 29 30 30 25 22 21 17 9 10 14 17 28 26 26 27 29 29 28 29
17 16 14 19 26 27 27 30 28 32 30 27 24 26 27 24 20 16 12 16 17 15 18 25 26 28 29 29 29 30 30 31
14 11 15 18 25 25 33 33 30 31 30 29 28 25 20 18 18 13 18 14 17 21 25 26 27 29 30 30 31 31 33 34
21 24 25 23 21 28 43 31 30 27 25 23 22 18 15 14 12 11 15 17 21 22 23 25 28 30 31 32 33 34 34 35
28 33 22 23 30 43 35 31 27 23 17 15 14 13 11 11 15 19 23 15 22 22 25 28 31 32 33 33 33 34 35 36
30 24 26 26 37 39 29 29 26 19 13 10 10 11 11 14 16 13 15 20 21 26 29 31 32 32 31 31 32 34 34 34
27 33 34 32 35 32 26 28 23 16 12 12 12 15 19 17 13 13 19 23 28 28 31 31 31 30 31 30 30 32 35 38
33 31 33 37 32 27 24 23 17 13 13 16 21 14 12 12 14 18 25 26 27 30 29 31 31 30 29 31 34 37 39 41
31 32 39 31 27 22 27 19 14 16 18 21 11 10 10 14 17 22 24 27 27 29 31 29 29 31 29 30 33 38 41 44
39 38 30 26 31 31 34 24 13 18 14 9 8 9 12 15 20 24 25 27 29 30 29 28 29 31 35 39 37 31 30 32

GFSFLT1_850_spd_003.txt.gz
Wind_Speed
9 20 16 16 17 18 17 18 18 19 19 18 17 18 20 17 18 19 22 18 15 12 11 10 10 6 6 10 16 17 17 19
12 7 12 11 13 14 16 17 19 21 20 21 22 23 24 20 22 24 20 19 17 15 13 8 7 7 10 12 14 14 16 20
5 5 2 6 10 13 14 15 18 19 20 22 22 22 21 21 19 24 23 24 23 19 19 15 15 13 13 13 9 10 14 15
2 3 6 9 12 13 14 13 16 19 22 23 25 21 22 24 22 24 27 29 27 25 21 17 15 16 15 10 11 13 15 13
6 3 3 6 10 10 11 13 17 18 22 26 28 30 30 29 28 27 28 29 28 25 21 20 16 14 9 10 13 15 17 22
4 3 5 5 7 8 11 14 21 25 25 25 29 31 32 33 27 23 24 23 20 29 23 24 20 17 16 22 21 21 23 26
2 3 7 12 12 12 14 17 21 24 27 29 30 33 35 34 35 31 31 22 20 24 26 25 23 20 19 16 16 23 24 28
5 9 7 6 6 7 11 20 25 28 33 33 35 37 37 39 38 38 36 30 25 23 19 14 13 18 20 27 23 30 35 32
9 8 4 6 4 11 19 21 26 30 32 38 33 30 35 41 40 39 37 33 26 22 22 23 23 22 28 31 30 29 30 31
9 6 7 5 14 19 21 28 32 34 34 36 38 37 35 31 31 28 21 17 14 14 16 17 21 26 30 20 28 30 31 33
11 12 18 17 19 24 29 29 33 34 28 33 36 34 24 19 19 16 14 15 14 15 18 27 28 17 21 27 29 30 31 32
15 21 15 14 19 24 31 35 36 25 30 31 32 31 23 18 15 13 13 18 13 16 25 15 17 22 26 28 31 32 34 34
21 16 18 25 32 39 39 42 27 27 27 30 28 23 18 13 12 13 13 11 13 20 14 18 23 26 29 32 34 35 35 35
24 26 29 37 36 38 37 30 25 29 28 28 20 14 12 12 11 10 13 16 21 17 17 22 26 31 33 34 33 33 33 33
20 27 37 38 36 38 29 27 30 29 24 22 16 9 6 11 13 12 15 14 16 21 24 28 29 32 32 31 32 33 32 32
30 34 35 37 36 27 26 29 36 28 20 13 9 11 12 13 13 15 13 15 21 25 26 28 32 29 30 29 28 29 33 37
36 36 35 33 28 25 31 36 30 22 15 16 13 12 15 18 17 14 13 20 24 25 31 29 30 32 27 28 32 34 36 37
34 32 34 27 22 29 35 36 31 23 20 18 22 24 19 11 7 9 21 25 29 31 31 33 30 28 29 31 33 39 44 45
31 31 28 24 32 33 37 25 15 15 11 7 7 4 4 4 14 20 24 27 29 32 30 26 27 29 33 36 36 29 28 29

GFSFLT1_850_spd_006.txt.gz
Wind_Speed
7 18 16 16 13 9 10 13 15 15 18 20 21 22 23 23 22 25 26 25 21 19 19 18 14 14 15 13 12 13 14 16
4 6 15 14 8 8 10 11 12 15 15 17 19 22 23 25 26 27 24 24 27 24 20 19 19 17 14 14 14 15 13 15
10 7 5 4 6 7 8 8 10 12 14 16 19 22 25 27 25 23 26 29 29 27 26 26 23 19 18 18 18 15 12 13
4 1 3 6 7 6 5 5 10 13 15 16 20 24 28 31 33 32 30 29 34 32 32 30 28 24 23 21 21 16 16 13
5 5 5 6 5 6 7 8 11 14 19 22 25 28 30 31 33 33 31 34 30 32 31 30 26 24 24 21 20 17 16 15
2 2 2 3 3 4 6 9 13 15 20 24 29 33 39 38 37 36 36 35 36 30 31 34 33 30 24 19 16 18 19 15
3 3 5 3 1 0 3 5 8 13 20 26 29 33 36 38 39 41 43 40 39 33 31 36 32 30 31 28 27 23 23 23
5 5 5 4 4 5 8 15 22 28 33 32 37 42 36 33 33 31 39 41 32 32 31 30 27 24 21 19 24 24 24 30
3 1 5 1 6 12 16 19 25 29 32 37 39 32 34 35 33 32 34 36 27 26 23 20 15 16 22 23 28 33 35 21
9 9 10 10 13 17 22 26 31 35 38 33 27 31 34 34 30 28 23 27 28 23 16 25 23 23 28 29 22 19 20 25
8 8 4 9 20 27 32 37 36 34 29 28 29 31 32 31 20 15 18 20 18 14 21 19 22 18 11 13 17 21 26 28
12 12 13 19 26 29 28 33 30 29 30 31 30 30 29 23 15 13 15 15 13 20 15 14 13 13 15 20 23 26 30 33
10 16 23 28 30 30 33 31 30 29 31 35 30 28 22 17 14 13 13 11 7 10 11 12 14 18 21 24 28 31 32 33
15 24 30 31 35 30 31 28 28 28 37 35 28 22 17 15 13 13 13 10 11 9 13 16 19 23 27 28 31 31 31 32
22 28 33 30 32 31 30 28 29 37 38 33 21 16 13 12 12 11 11 7 12 15 18 21 24 27 28 33 31 32 34 32
27 30 34 32 31 29 30 27 35 39 38 24 17 15 14 12 9 9 10 13 12 16 22 23 25 30 30 31 33 31 32 35
32 29 30 31 30 28 25 32 36 32 22 16 13 14 14 16 16 20 8 10 14 20 23 27 29 32 31 28 29 31 34 38
35 31 29 28 30 28 31 31 24 16 13 12 10 12 12 11 6 5 8 14 20 25 26 30 31 27 27 27 33 36 39 40
32 29 29 27 29 30 26 13 11 9 6 7 8 8 8 7 9 12 19 23 24 28 29 27 28 28 30 30 33 39 36 32

GFSFLT1_850_spd_009.txt.gz
Wind_Speed
14 19 19 19 17 13 8 6 6 7 7 10 12 16 18 19 19 20 22 25 27 26 23 22 21 22 22 21 21 21 20 18
3 7 10 12 13 9 5 5 6 4 6 9 12 15 18 22 23 23 23 24 26 28 28 27 25 24 25 24 23 23 23 20
10 8 7 5 4 5 5 6 6 7 10 13 16 19 21 24 27 29 30 31 29 29 31 33 32 31 29 29 29 28 26 23
7 4 2 4 5 5 8 10 11 11 12 15 19 23 26 28 30 34 36 38 38 36 36 38 38 38 37 36 33 31 30 26
6 4 7 7 7 8 11 12 14 13 16 18 20 24 29 29 31 35 35 36 39 42 41 40 41 41 37 34 33 32 30 28
4 6 6 7 8 10 12 13 13 13 14 18 26 33 35 38 40 37 34 34 36 41 43 43 42 39 34 33 32 26 24 24
3 4 5 7 9 11 10 6 6 12 20 27 32 35 39 41 38 33 32 32 32 32 38 43 42 38 29 26 24 26 21 15
6 9 9 8 7 3 7 13 18 23 28 35 36 39 37 33 34 36 35 32 33 34 30 35 34 27 32 32 20 17 20 17
8 4 6 1 5 11 17 24 30 35 39 38 33 29 30 32 34 34 34 31 28 23 19 24 23 27 18 15 18 23 26 27
8 3 3 6 13 21 25 30 32 33 29 28 29 32 33 32 31 31 31 29 24 23 23 22 13 15 19 29 34 31 14 16
5 5 8 15 22 26 28 28 29 27 28 30 33 39 35 30 29 28 24 19 18 16 13 15 20 23 18 12 11 12 18 21
9 12 19 24 27 26 24 26 28 26 27 33 37 40 33 31 28 24 18 13 10 12 16 19 10 8 10 14 17 19 22 26
19 21 23 26 28 26 29 25 31 31 32 36 42 45 31 26 22 16 14 11 17 11 10 8 8 11 14 18 22 24 26 30
22 22 25 24 26 28 29 30 32 32 37 43 45 36 23 20 19 16 12 11 10 10 13 15 16 17 20 24 26 28 31 31
23 24 26 25 26 30 32 33 32 36 40 41 35 23 15 16 13 9 8 5 9 13 15 19 23 26 27 28 31 32 34 33
19 28 31 27 27 31 31 31 34 37 36 29 23 14 10 12 12 13 12 14 14 14 20 23 24 26 28 30 30 28 29 31
25 31 31 29 30 32 29 33 32 27 19 17 14 10 9 12 16 13 9 14 18 17 21 25 27 29 29 28 28 29 33 37
29 31 32 29 30 26 32 31 22 13 12 11 10 11 9 11 11 12 14 17 21 21 24 28 30 30 29 29 30 32 35 39
27 31 29 30 29 34 30 22 16 15 12 7 6 7 8 10 16 23 23 19 22 25 27 27 28 28 27 29 33 37 37 35

GFSFLT1_850_spd_012.txt.gz
Wind_Speed
13 12 13 14 17 15 12 6 6 6 3 5 6 9 10 12 15 18 21 24 26 27 27 26 25 24 23 24 24 23 23 23
3 3 2 5 10 11 7 5 5 5 6 9 11 14 15 17 20 22 24 27 31 33 34 33 31 31 28 26 25 27 28 27
10 9 7 6 4 5 6 7 8 8 10 13 16 19 21 22 24 26 29 31 32 34 38 39 39 37 36 33 33 33 32 32
7 6 3 2 3 4 7 9 12 13 15 18 20 21 22 27 28 26 27 32 33 35 34 39 43 44 43 41 40 39 38 37
5 1 4 6 7 10 11 13 15 16 16 15 17 23 30 33 34 36 36 31 29 30 31 31 36 44 49 48 45 42 39 37
3 7 9 11 12 12 11 9 8 8 11 17 24 28 33 35 34 33 31 32 33 33 33 33 32 34 44 49 44 40 37 34
6 7 6 6 3 2 3 5 9 14 20 26 31 32 32 33 34 35 37 37 36 36 34 34 35 33 33 28 36 31 25 26
7 6 4 1 3 6 11 17 23 27 29 29 29 28 30 32 35 37 37 36 36 35 32 27 26 24 22 23 23 23 19 19
5 5 5 6 11 17 22 26 29 30 28 27 26 27 31 35 37 37 33 31 32 31 26 19 16 18 18 12 10 11 16 17
8 8 9 15 21 24 26 26 26 26 26 27 30 34 38 41 41 34 27 27 29 22 13 11 5 7 16 20 25 30 24 22
12 16 19 19 20 24 24 24 24 24 29 30 34 39 42 42 40 26 22 25 20 9 5 9 17 23 24 24 12 13 15 13
18 20 19 20 23 24 25 26 29 29 31 33 38 42 43 42 28 18 17 13 6 5 15 18 17 14 10 11 13 13 17 20
23 25 26 24 28 27 25 28 31 32 33 36 41 42 39 27 18 9 6 6 5 11 10 8 10 15 18 19 20 22 25 26
27 28 23 27 29 27 25 27 31 30 34 38 39 37 30 18 9 9 9 9 9 9 13 15 15 17 20 21 23 24 27 30
25 25 22 27 28 26 27 31 30 32 36 33 31 28 24 14 7 9 9 10 18 22 17 18 21 21 21 24 27 30 32 32
24 20 25 24 24 26 33 30 31 36 30 24 23 20 18 12 12 14 16 22 26 25 22 23 23 26 30 31 30 28 29 31
21 20 22 24 26 29 30 34 39 30 21 17 12 16 15 11 12 11 12 17 21 26 24 24 26 28 28 26 27 28 30 32
22 24 25 27 30 30 37 35 27 21 20 13 8 9 11 15 19 20 22 24 23 22 25 27 27 27 26 27 28 32 34 34
23 22 27 27 33 37 30 24 25 24 18 12 18 18 17 17 19 20 21 22 24 24 24 25 25 26 28 31 31 31 30 30

GFSFLT1_850_spd_015.txt.gz
Wind_Speed
14 12 12 12 11 13 14 12 9 9 7 7 6 8 10 12 14 17 19 21 22 24 28 30 30 31 31 29 29 28 26 24
4 1 3 1 5 11 12 10 9 8 9 10 10 11 13 16 18 20 24 25 26 27 30 32 33 36 38 38 36 34 32 30
11 10 8 6 3 5 10 11 11 11 12 14 16 17 18 21 22 25 27 27 29 33 33 34 35 36 36 39 42 42 40 36
8 7 6 4 5 8 10 11 12 12 14 15 15 16 17 21 27 32 34 33 29 28 29 31 32 32 34 35 38 44 46 41
3 1 2 5 6 7 9 9 10 9 7 10 14 21 25 27 30 31 30 29 30 32 33 32 33 33 36 35 35 38 40 44
4 5 5 4 1 2 1 3 6 10 15 20 24 27 28 29 30 33 35 35 36 36 35 34 34 34 35 36 35 34 33 33
5 4 3 4 4 3 4 8 15 21 25 28 29 31 32 33 35 39 40 39 38 36 33 31 29 27 26 25 24 20 13 18
5 2 2 4 7 11 15 19 23 25 29 32 31 29 28 31 35 39 42 40 36 32 30 28 23 21 18 14 12 9 8 7
10 8 9 12 17 20 23 25 27 31 33 30 24 25 28 35 38 40 40 37 31 27 25 20 14 10 7 9 11 9 16 16
12 15 18 19 21 21 24 27 25 22 23 23 24 28 33 38 40 39 35 27 22 19 11 4 6 11 13 15 19 17 18 19
17 21 22 22 22 22 25 23 21 21 24 26 28 33 37 39 40 35 25 17 11 5 5 8 12 13 13 12 13 13 14 14
20 20 20 21 17 21 24 22 22 25 27 26 31 38 39 37 33 24 15 7 4 5 4 5 6 10 8 14 15 17 17 17
23 19 21 18 18 24 24 22 22 26 27 30 36 36 31 28 24 17 4 7 7 6 9 19 24 15 16 17 20 18 18 20
26 20 22 21 28 25 22 25 28 29 32 37 36 28 25 21 15 9 8 10 11 13 22 26 22 17 15 19 21 23 25 28
22 18 21 22 21 21 22 24 27 32 34 31 24 22 22 17 12 10 12 14 16 20 25 20 22 23 22 24 26 28 29 30
15 15 18 17 20 24 26 28 32 29 27 22 20 19 12 14 12 13 15 19 21 21 22 21 20 21 24 27 28 29 29 29
12 13 15 21 24 26 33 35 27 22 22 22 22 17 18 17 18 17 18 20 21 22 21 22 24 25 24 24 25 27 28 28
16 16 18 25 25 33 35 28 22 20 22 13 14 15 16 18 19 21 22 22 22 22 22 22 23 23 24 26 27 27 27 26
20 20 25 23 30 32 27 23 21 22 11 12 16 16 18 20 23 23 22 21 21 22 22 21 22 25 25 25 26 26 24 24

GFSFLT1_850_spd_018.txt.gz
Wind_Speed
10 9 12 13 12 10 8 10 12 13 13 12 9 9 9 9 10 14 17 20 22 24 26 28 27 24 24 23 24 23 24 24
4 7 6 3 3 4 5 6 14 12 11 9 6 7 9 10 11 16 18 21 26 30 31 29 28 24 26 28 25 26 27 26
11 10 8 7 4 5 6 8 9 11 10 12 14 15 12 15 14 16 21 29 30 28 28 27 25 23 24 25 26 26 28 26
10 9 6 4 2 3 4 7 10 11 10 7 7 9 12 11 22 25 28 30 29 28 28 29 30 28 25 24 24 25 29 27
7 7 3 2 3 3 3 3 4 7 9 12 16 13 13 15 16 18 25 26 30 30 30 30 30 27 24 23 22 23 24 30
7 7 8 7 6 7 8 9 9 13 17 19 18 21 23 27 30 41 25 22 24 26 31 32 31 29 26 30 25 16 17 20
6 7 7 8 8 8 9 10 10 16 19 21 22 21 24 21 19 22 24 26 26 25 29 29 27 22 14 10 16 16 17 18
8 6 5 6 8 11 14 16 15 17 21 24 30 18 17 19 22 24 29 30 28 25 27 17 11 10 12 13 13 12 9 10
7 6 8 9 10 11 13 14 15 14 15 20 21 19 20 22 25 31 31 29 27 23 13 8 5 2 4 12 14 15 13 18
6 10 11 12 12 12 14 17 20 19 18 18 20 23 25 27 34 34 29 27 19 12 7 5 6 7 8 9 9 8 8 10
9 13 15 15 15 13 14 19 19 17 16 16 18 21 24 29 31 29 25 19 11 7 7 7 6 5 6 15 9 10 10 10
14 16 15 14 12 14 17 18 16 15 15 17 20 22 24 25 24 18 13 8 7 8 7 6 9 15 24 13 12 11 11 11
15 16 14 12 14 18 18 15 17 17 17 19 21 26 20 17 17 12 10 8 8 8 10 12 19 24 15 12 12 11 13 14
18 17 15 14 18 17 15 15 16 20 22 21 18 16 16 17 14 12 10 10 11 12 12 18 19 16 15 15 16 16 17 18
16 15 15 18 16 14 14 17 20 22 20 19 18 15 17 18 12 12 13 14 16 18 18 15 18 15 14 13 15 17 18 19
15 16 16 12 12 15 17 21 21 17 17 17 13 15 14 13 13 14 15 15 16 16 14 13 14 15 14 21 20 18 19 21
15 14 13 14 16 17 20 21 17 15 14 14 9 11 12 14 14 15 16 16 15 15 15 15 15 14 20 23 25 24 22 22
14 12 13 17 16 18 21 20 16 15 15 11 11 13 13 13 16 17 17 16 16 16 16 15 14 15 22 25 26 25 22 21
15 15 18 17 17 20 21 20 18 16 15 13 12 12 13 15 16 16 16 16 16 16 16 15 17 17 25 25 26 24 20 21

GFSFLT1_850_spd_024.txt.gz
Wind_Speed
15 14 10 3 2 3 2 3 6 10 8 6 6 7 7 8 8 10 15 17 17 18 21 27 28 31 34 30 26 28 32 32
16 16 12 8 9 9 9 8 8 2 3 5 7 6 7 6 9 12 15 15 22 22 27 23 25 29 26 27 29 31 31 29
17 15 15 13 11 10 7 4 2 5 1 4 7 8 10 10 10 11 13 19 22 28 28 30 21 24 28 29 24 25 26 25
14 14 13 11 12 11 9 6 5 6 3 2 6 8 7 10 13 19 29 25 25 27 20 21 24 26 32 30 26 26 29 27
12 10 10 10 10 10 7 5 4 7 9 7 8 7 10 13 17 18 22 25 22 19 22 24 27 28 31 27 20 23 25 27
9 9 9 7 6 7 5 4 7 9 10 10 13 14 18 20 16 18 19 18 19 23 25 26 28 31 31 22 22 22 21 22
7 7 6 7 7 6 6 7 8 10 13 15 15 17 15 17 18 19 17 22 26 27 28 28 28 21 20 21 22 26 24 24
6 5 5 5 5 7 7 9 11 13 13 14 14 14 15 16 18 20 24 30 27 28 25 22 19 21 24 26 27 19 20 24
3 3 6 6 7 8 10 11 12 16 16 16 16 18 15 16 23 27 29 21 25 22 17 17 23 24 23 15 8 15 17 20
5 6 9 10 11 12 12 13 15 16 18 18 17 16 19 24 26 28 21 23 18 20 24 22 21 23 21 17 20 23 24 20
9 11 13 13 14 13 14 16 15 16 18 16 16 18 18 23 25 18 20 18 20 20 18 18 18 12 15 22 25 27 26 22
10 13 12 14 17 20 18 19 15 13 14 16 19 21 20 18 14 16 23 25 22 21 22 23 23 24 27 28 19 16 18 19
12 13 14 17 16 15 16 15 12 14 18 19 20 18 18 17 20 26 25 17 19 18 21 23 25 23 21 19 19 19 20 18
15 14 14 19 20 21 16 14 16 16 19 20 20 19 21 23 19 19 17 17 19 21 21 22 22 22 20 21 21 20 18 19
17 16 19 20 19 16 16 18 16 18 20 21 19 20 22 16 15 16 18 18 20 22 23 22 22 22 22 22 19 20 24 31
15 19 20 17 18 17 19 19 21 19 21 21 20 22 17 15 19 18 19 18 21 21 22 22 22 22 23 22 25 28 31 36
20 18 18 18 18 20 21 22 21 22 20 22 26 18 16 16 16 18 17 19 19 20 20 21 21 21 24 27 29 31 33 34
20 18 19 19 21 23 26 23 24 23 29 26 29 26 16 14 15 15 18 18 19 19 21 21 20 20 23 28 34 33 34 34
18 19 21 21 21 25 26 26 29 28 30 35 27 22 16 13 14 14 16 17 19 21 20 19 23 28 30 31 36 33 32 31

GFSFLT1_850_spd_027.txt.gz
Wind_Speed
25 22 19 15 13 10 6 4 3 2 6 4 3 4 4 5 7 9 12 14 16 19 23 26 28 29 30 32 31 28 31 34
21 18 17 12 8 4 5 6 6 5 1 3 4 5 3 3 10 14 13 12 16 22 26 23 24 27 26 27 31 32 29 28
16 13 10 7 6 3 3 3 2 1 3 4 6 7 6 4 6 7 10 12 13 16 19 20 19 21 24 29 33 33 33 28
16 15 14 11 9 6 4 4 6 6 2 3 6 9 9 10 12 15 18 20 22 22 20 19 21 25 28 28 31 34 30 26
16 12 10 8 9 6 8 10 13 14 14 14 15 17 16 17 20 20 22 24 23 24 22 25 31 31 31 33 30 27 26 27
10 7 7 9 9 10 9 7 9 12 17 19 20 19 18 15 13 18 18 20 22 24 30 33 27 25 26 24 23 25 27 26
6 5 7 8 8 9 7 3 6 10 9 10 10 10 12 15 23 26 28 28 31 34 29 23 23 22 22 24 27 30 31 28
12 8 5 4 4 3 3 7 8 10 16 18 13 12 15 16 20 26 26 31 34 27 21 20 21 24 26 27 27 26 16 23
4 7 5 2 2 6 10 12 11 12 12 14 17 19 17 17 21 24 29 28 21 16 19 26 28 24 23 23 28 19 14 20
4 7 6 2 4 7 10 12 12 14 15 13 13 14 16 21 25 28 26 22 19 20 25 24 24 25 25 28 18 22 26 26
7 6 7 8 11 14 17 16 15 13 14 13 14 18 22 24 23 22 19 21 27 26 22 25 21 20 22 23 21 21 17 18
7 8 9 10 11 10 12 16 15 13 14 16 22 25 21 20 22 21 25 32 19 17 18 21 22 24 21 20 20 19 19 19
12 12 8 8 16 21 18 13 13 17 18 20 20 23 26 24 28 30 27 24 15 16 18 19 22 22 21 20 20 21 23 22
8 5 12 22 20 15 15 16 19 19 21 26 27 25 27 26 30 28 23 22 18 16 19 22 23 22 22 21 23 24 20 20
13 16 23 21 15 17 17 19 20 27 28 24 26 27 26 29 30 28 22 20 18 18 19 23 25 23 23 22 21 23 28 31
19 23 20 15 16 16 20 23 28 26 19 27 28 32 33 29 26 25 21 17 14 18 18 23 23 22 22 24 28 32 34 35
19 20 19 19 22 24 24 24 22 21 30 31 31 25 24 36 33 19 17 13 15 18 19 20 21 23 26 28 30 33 36 36
17 17 20 19 21 18 20 21 24 26 30 28 25 29 32 24 23 19 19 17 15 17 18 17 18 23 26 29 33 33 30 27
17 20 22 25 17 21 21 22 26 28 27 26 33 30 26 26 18 17 19 12 11 16 15 16 21 24 26 30 29 26 28 30

GFSFLT1_850_spd_030.txt.gz
Wind_Speed
26 27 24 23 24 24 20 16 11 8 10 10 12 8 7 6 3 4 7 9 11 14 17 19 22 25 28 30 30 29 32 34
28 29 28 23 19 15 12 10 11 11 12 10 7 8 4 3 5 4 7 9 10 14 18 20 22 24 23 24 28 33 35 36
18 15 13 14 15 15 15 14 11 9 6 4 2 1 3 3 4 9 11 14 18 22 24 24 22 22 23 27 31 33 33 34
18 15 12 9 11 10 9 10 10 7 4 2 3 5 8 11 16 21 24 26 28 27 24 24 26 30 32 32 29 26 24 23
17 14 12 9 11 11 11 9 9 12 14 15 16 19 19 21 23 22 22 24 25 27 29 32 32 29 24 22 18 18 20 22
17 13 9 8 8 9 10 11 11 12 15 17 16 15 15 15 16 17 20 21 24 30 33 33 24 24 19 19 20 23 26 23
11 8 6 6 6 6 4 3 7 10 12 15 18 20 16 14 17 22 26 26 30 34 31 27 25 25 25 24 23 22 23 23
8 5 3 5 3 1 3 5 8 11 16 17 16 15 15 14 16 20 24 28 27 23 28 27 27 26 23 23 23 24 25 16
9 9 9 8 4 3 6 11 14 18 20 21 21 19 18 18 23 28 28 27 26 24 22 25 22 23 21 20 19 22 22 23
10 10 9 5 2 5 7 10 13 16 18 17 15 15 20 25 28 28 27 25 22 30 28 18 19 18 20 21 21 19 19 16
12 8 6 4 5 6 10 14 17 17 16 16 18 23 29 30 31 32 29 29 29 27 22 20 19 19 19 19 21 20 18 16
11 10 6 3 6 12 17 13 9 12 17 22 25 25 31 32 31 33 31 30 26 25 18 17 18 20 19 17 15 16 18 21
10 5 4 9 14 15 12 10 13 18 17 24 29 30 29 28 35 34 34 33 28 21 17 20 19 21 22 20 18 18 20 19
5 8 13 16 12 9 10 14 18 21 27 28 23 23 32 33 31 33 35 26 23 15 20 21 20 20 22 22 21 20 21 25
10 14 13 8 9 10 15 18 17 19 19 18 24 26 27 28 34 32 26 23 17 14 17 20 19 22 21 20 20 23 26 28
12 14 10 11 13 15 13 15 19 19 20 20 28 27 30 30 26 26 32 33 20 13 16 17 19 20 20 20 23 27 29 32
9 9 13 14 17 12 11 16 20 23 24 27 26 26 30 29 30 30 33 24 15 8 16 15 19 17 18 22 26 29 31 29
11 14 13 11 10 11 17 21 23 24 25 25 25 27 30 34 33 29 31 23 17 9 9 14 17 17 21 24 27 29 27 26
10 7 10 12 15 19 19 21 21 18 18 23 27 31 33 36 37 23 26 23 21 13 8 13 15 20 23 26 26 25 25 26

GFSFLT1_850_spd_033.txt.gz
Wind_Speed
10 12 11 21 30 34 25 18 13 11 9 10 8 7 7 7 8 9 9 12 13 15 18 20 24 27 28 29 30 32 33 35
24 21 19 21 22 22 18 9 0 3 6 6 6 6 3 4 5 7 9 12 15 19 22 26 27 27 29 30 32 33 36 38
23 22 19 15 9 9 9 8 6 4 3 4 4 4 7 10 13 15 19 23 25 27 28 30 30 32 35 34 32 31 28 24
19 14 11 12 12 11 11 9 7 5 4 5 6 8 14 19 20 20 20 20 22 25 25 26 28 32 27 22 21 19 21 21
16 16 17 15 13 10 11 10 8 9 11 11 14 15 17 17 18 18 18 20 22 24 25 28 26 22 22 20 20 19 19 20
18 17 14 11 9 7 5 3 1 5 9 13 13 14 16 15 13 15 17 23 28 30 30 26 27 27 26 22 18 17 17 18
16 15 12 11 8 4 1 3 7 9 11 13 16 17 15 13 14 18 23 26 28 27 27 29 31 29 27 22 20 18 18 20
13 10 8 7 5 4 5 6 8 9 12 15 16 16 15 14 17 21 27 27 27 26 29 28 27 24 22 19 15 16 19 20
8 4 6 3 5 4 4 7 12 14 14 17 16 15 16 19 25 27 29 29 29 28 26 26 22 20 19 18 17 17 18 19
8 7 8 6 4 6 8 11 12 15 15 16 17 20 23 24 27 29 28 30 30 29 28 28 24 21 20 18 18 17 15 14
14 11 7 4 5 7 9 13 13 14 13 15 19 23 26 26 25 27 28 29 32 32 30 24 20 17 18 20 19 15 15 14
11 8 5 2 5 9 12 10 9 12 16 19 23 22 20 22 26 27 29 31 33 23 18 19 16 20 22 21 20 19 18 20
9 4 3 6 9 9 6 8 12 14 15 19 19 17 20 22 24 24 32 35 28 25 30 27 8 16 19 20 20 20 18 20
3 2 5 5 5 6 7 10 13 12 17 21 20 18 21 26 28 28 25 28 29 32 32 17 13 16 20 19 19 19 21 22
1 4 2 5 6 7 9 10 11 12 17 19 20 25 26 26 26 28 28 26 26 33 35 21 17 14 18 18 18 20 21 25
2 2 3 5 4 8 8 8 13 18 22 27 29 26 27 28 28 28 29 31 29 30 22 9 11 14 17 15 17 22 26 31
3 2 6 7 7 4 9 15 20 25 27 23 21 23 26 30 30 34 35 25 26 18 12 12 12 14 13 18 24 28 29 29
4 4 2 2 7 12 18 21 23 23 20 19 22 26 29 30 33 35 28 22 19 19 16 14 12 10 19 22 26 27 26 26
4 3 4 8 12 18 23 23 24 20 15 22 27 28 31 35 33 28 24 20 17 17 10 7 10 16 21 24 24 25 25 26

GFSFLT1_850_spd_036.txt.gz
Wind_Speed
14 16 20 21 28 29 28 24 22 13 22 14 5 3 1 4 5 5 6 9 12 15 18 22 25 27 29 31 33 33 32 32
6 6 8 13 14 17 21 18 5 8 9 6 2 5 8 9 11 13 14 14 16 19 21 25 28 31 33 34 35 33 29 28
20 18 14 10 8 12 15 15 14 12 8 7 8 10 11 14 16 18 18 18 20 23 25 27 30 31 31 31 29 27 26 25
14 10 14 18 19 18 16 14 12 11 10 9 9 9 11 13 14 16 16 16 18 22 26 28 29 28 27 27 26 25 24 22
14 17 18 17 15 13 11 9 7 8 7 5 6 8 11 13 15 15 14 16 21 26 27 24 24 27 27 26 23 20 18 16
18 17 14 10 9 8 5 4 3 2 4 7 9 12 14 12 11 11 14 19 22 23 21 23 27 28 26 24 22 21 19 19
17 15 10 8 6 5 7 3 3 5 7 10 13 14 13 11 10 14 19 22 22 25 25 27 28 29 25 22 20 17 17 18
17 14 14 14 8 7 5 4 6 8 10 11 11 10 11 12 15 18 20 22 25 25 26 28 27 28 25 22 19 17 17 18
15 14 15 13 8 8 6 5 7 10 12 10 9 11 14 17 19 18 21 23 24 25 27 27 25 22 20 18 17 17 19 20
16 15 15 12 9 6 3 6 10 10 7 8 12 16 19 18 18 21 21 21 23 26 29 26 24 20 18 16 17 18 18 18
17 17 15 11 6 3 7 9 6 5 9 12 16 19 17 16 17 19 19 21 28 29 27 26 21 19 19 19 17 20 18 17
17 14 10 6 4 6 7 7 5 8 10 13 18 18 15 15 18 19 19 22 22 24 25 26 25 29 16 15 17 18 17 16
12 8 4 3 4 5 5 4 6 9 12 15 15 13 16 18 20 21 21 27 27 24 24 26 29 29 17 16 11 18 18 18
8 3 1 1 1 2 4 6 9 11 10 12 16 19 20 20 23 26 27 26 30 25 25 27 28 27 16 11 15 19 18 20
4 2 2 1 3 7 7 9 8 9 15 20 23 19 19 22 27 29 28 31 31 25 24 26 23 14 11 12 15 18 19 25
4 4 3 5 4 7 8 7 12 18 21 22 16 17 20 26 30 29 32 32 26 20 21 20 14 10 12 14 15 19 26 30
7 5 4 4 4 4 8 14 19 19 19 16 17 20 26 26 29 34 31 27 23 16 18 18 14 12 11 12 19 24 29 30
8 6 4 3 4 8 13 17 19 19 17 15 19 24 23 28 32 30 27 27 20 10 13 15 12 9 10 17 22 27 27 27
8 6 5 5 8 11 14 17 19 18 15 20 22 24 28 31 29 26 23 22 14 11 8 6 7 11 15 22 24 24 25 25

GFSFLT1_850_spd_039.txt.gz
Wind_Speed
15 15 17 16 19 22 22 21 21 17 6 7 5 1 1 3 5 6 8 9 10 12 15 17 20 24 26 27 27 26 25 25
6 5 7 10 11 10 13 16 11 3 9 11 10 5 4 1 5 8 10 10 10 13 15 19 24 26 26 25 25 26 24 27
9 7 8 7 7 8 8 11 13 15 12 10 6 3 3 7 11 11 13 14 13 14 19 23 23 20 21 23 24 24 23 23
17 16 19 23 23 22 20 20 19 16 11 6 2 0 3 7 10 12 12 10 12 18 21 21 19 22 24 24 24 22 19 18
19 24 25 24 22 19 17 15 13 10 6 3 4 5 7 9 10 10 8 11 16 18 18 17 19 21 23 23 22 20 19 12
23 23 21 19 18 16 12 11 9 6 5 4 7 8 8 8 8 7 11 14 17 17 19 19 21 22 22 23 22 21 17 13
21 20 18 17 15 11 10 8 10 7 4 5 6 7 6 6 7 11 14 16 18 20 20 21 22 24 25 23 22 21 16 15
22 20 18 16 14 6 12 11 7 4 4 5 5 5 6 9 12 14 14 17 18 19 21 24 27 26 23 21 18 17 17 17
21 18 16 15 11 8 10 8 5 3 4 3 4 6 9 10 12 13 15 17 18 21 24 26 25 24 24 23 23 20 17 16
19 17 16 15 11 10 8 6 4 2 2 3 5 8 10 12 13 14 16 18 21 23 25 23 22 23 26 25 25 27 18 15
17 17 16 14 11 9 6 3 1 2 3 5 8 11 15 17 16 18 20 21 22 23 26 26 24 24 25 22 28 18 14 14
15 15 14 12 8 4 1 2 1 3 6 9 11 14 15 16 18 19 20 23 26 26 27 24 23 24 21 25 21 18 12 16
16 15 12 10 6 4 2 3 7 7 9 11 11 16 19 19 16 20 23 26 24 28 28 23 21 22 21 27 23 15 14 15
17 13 11 8 4 3 5 8 6 7 7 12 18 20 17 16 18 22 25 27 29 28 25 19 19 22 22 16 13 13 16 18
16 12 9 5 4 6 7 6 5 7 13 18 18 15 14 16 21 25 27 29 28 25 21 17 20 18 14 10 12 16 18 19
15 11 9 8 7 5 5 3 7 13 16 15 13 13 14 21 24 27 29 27 25 25 21 14 16 15 14 12 15 15 19 25
13 12 11 8 7 6 3 6 12 15 14 13 13 13 20 23 26 28 27 25 24 22 13 10 12 13 12 10 13 19 24 26
14 12 9 9 7 4 7 10 13 14 13 10 12 18 22 24 27 26 25 23 21 18 9 9 9 8 9 14 18 23 23 24
13 10 10 8 6 7 9 12 14 14 12 13 16 20 23 25 26 23 22 22 17 12 8 6 7 10 14 19 22 22 22 23

GFSFLT1_850_spd_042.txt.gz
Wind_Speed
8 11 12 11 15 17 17 18 20 22 17 18 5 5 5 1 2 2 4 6 7 7 9 13 15 13 12 17 18 16 16 18
7 9 11 15 16 15 14 10 11 7 12 8 11 6 5 2 3 5 6 6 7 8 9 12 14 11 15 16 16 17 18 17
8 7 9 11 14 14 10 9 11 15 14 12 9 10 6 4 5 5 6 7 8 10 12 9 14 15 15 17 17 18 18 17
12 13 12 15 16 17 17 18 20 17 14 12 10 8 5 4 7 8 9 8 9 14 19 22 20 16 15 16 15 15 18 18
15 17 18 20 20 20 20 19 16 15 14 10 8 5 4 7 7 6 5 11 14 18 19 19 17 14 15 16 17 17 17 21
20 20 20 20 22 19 18 16 13 14 12 9 6 5 5 8 6 6 8 10 15 15 14 15 14 17 18 19 18 18 19 18
20 19 18 18 20 18 15 13 15 12 8 7 6 6 3 3 4 6 9 11 12 13 14 15 18 19 20 20 19 18 18 17
21 19 17 16 14 13 13 10 9 8 7 6 5 3 2 3 6 9 11 14 15 17 16 18 21 22 21 20 19 19 18 16
21 18 16 15 13 11 10 10 8 8 5 5 4 2 4 6 8 11 13 14 15 15 16 19 21 21 21 20 19 18 18 19
20 18 16 14 13 10 11 10 8 6 6 7 7 8 9 9 13 14 11 12 13 15 18 20 21 21 21 20 19 18 19 18
19 18 16 14 12 11 13 9 9 7 7 7 8 11 12 13 14 9 9 12 16 18 20 20 21 20 20 19 17 19 19 16
19 16 14 13 12 11 11 11 8 6 8 9 12 8 11 12 7 9 11 15 17 18 20 21 20 18 17 18 17 19 21 14
18 16 16 15 13 12 12 11 5 7 9 7 5 10 11 7 8 10 14 16 17 19 20 19 17 17 19 18 19 16 11 13
18 17 17 16 15 13 13 6 7 7 5 5 7 8 7 8 10 13 15 17 19 19 18 17 17 15 17 15 11 10 11 12
19 18 17 16 14 14 10 10 4 6 5 7 8 8 9 10 12 15 17 18 19 18 18 17 16 14 12 10 9 10 11 12
20 19 17 15 14 14 7 7 6 6 7 9 10 10 12 11 14 16 18 18 17 16 15 13 13 9 7 7 8 8 12 15
20 18 16 15 14 10 9 7 5 10 11 10 9 10 11 13 15 17 17 16 16 15 15 9 8 7 12 9 10 11 15 16
19 17 15 14 12 10 6 5 10 12 11 9 9 13 12 14 16 16 15 15 15 14 13 11 9 8 9 11 15 16 14 13
18 16 17 16 12 8 8 9 12 13 9 9 10 11 13 15 15 15 15 15 14 13 12 9 6 8 12 16 19 13 12 13

GFSFLT1_850_spd_045.txt.gz
Wind_Speed
13 13 14 15 16 17 16 17 19 12 16 16 14 10 14 10 6 3 3 3 6 3 5 6 7 8 9 12 14 15 17 19
11 13 13 14 17 19 20 20 9 9 11 9 11 13 10 6 3 4 4 1 2 4 3 6 10 10 13 14 15 17 18 19
14 13 13 16 19 20 20 13 12 9 8 9 11 11 8 6 6 2 2 5 6 3 9 7 9 12 14 15 18 19 20 19
14 14 14 16 17 17 16 14 13 14 14 13 11 10 10 7 4 3 4 6 8 9 7 9 12 13 15 17 17 19 23 23
16 16 16 16 17 16 16 18 18 17 15 12 12 7 7 6 4 7 6 5 4 6 9 11 12 14 16 17 19 21 22 24
18 19 20 20 20 20 18 18 16 16 13 11 10 7 6 5 4 6 7 9 9 10 11 12 14 16 18 21 21 22 23 23
20 21 21 22 20 19 17 16 15 14 11 10 9 7 6 5 5 7 9 10 12 12 13 14 17 19 20 22 23 23 24 23
23 23 22 21 19 17 16 15 13 12 11 9 8 7 5 5 7 8 11 12 13 14 15 18 19 21 22 22 23 23 25 22
23 22 21 20 18 16 15 14 13 12 11 10 8 6 4 6 7 10 11 12 13 15 17 17 19 20 21 22 22 23 24 21
24 22 20 19 17 16 14 15 14 14 13 11 8 5 5 8 9 9 10 11 12 15 17 19 19 20 21 21 22 21 21 20
24 22 20 18 17 16 15 16 16 15 12 9 6 7 9 8 8 8 9 10 12 15 16 17 19 21 20 20 21 19 20 17
23 21 19 18 17 16 16 16 17 14 10 7 9 10 8 7 8 9 10 11 13 15 17 19 20 20 20 19 20 21 20 19
22 21 19 18 18 17 17 16 16 11 7 10 12 6 7 9 10 10 10 13 15 16 18 19 19 19 19 21 24 19 16 13
21 20 20 20 19 18 18 17 13 8 12 5 9 8 10 10 10 11 12 14 16 17 18 18 19 19 18 19 17 14 12 10
21 21 21 20 19 19 18 15 10 5 4 10 9 10 11 11 11 11 13 15 17 17 17 17 16 20 17 14 12 9 9 10
23 22 21 20 19 19 17 11 9 7 9 9 9 11 10 10 11 13 14 16 16 16 17 17 16 13 10 10 9 12 11 13
22 21 20 20 20 19 14 12 9 9 7 8 10 10 10 11 13 14 16 16 16 16 16 16 14 11 18 17 10 9 13 15
20 20 20 18 18 17 15 10 9 6 9 10 10 10 10 12 14 15 16 16 16 17 17 15 14 13 17 12 11 15 13 12
18 18 17 17 17 16 12 10 8 7 9 9 9 11 12 13 15 16 16 16 17 18 16 15 15 14 16 15 14 17 10 11

GFSFLT1_850_spd_048.txt.gz
Wind_Speed
19 16 16 20 21 24 19 24 21 16 14 14 14 13 17 21 12 5 2 2 2 4 9 10 8 4 10 16 15 17 16 17
17 16 17 18 20 22 22 21 18 15 12 12 11 12 10 12 11 7 1 1 4 3 6 5 10 9 11 12 15 18 17 20
16 17 18 14 22 24 23 20 14 11 7 7 8 12 10 6 5 5 8 6 3 5 7 5 9 13 12 14 18 19 21 16
18 18 17 18 23 24 18 17 14 15 14 12 12 12 14 14 10 6 8 4 5 4 7 11 14 16 14 15 16 17 23 27
21 18 20 23 23 21 16 18 14 16 16 16 17 17 11 9 7 8 9 9 9 8 10 13 15 14 15 17 19 24 23 22
22 22 23 20 19 20 19 20 19 19 18 16 15 10 16 15 12 11 8 9 12 11 12 13 12 13 15 20 20 23 26 26
16 18 14 20 19 18 24 21 21 19 18 15 14 15 11 9 10 9 7 8 7 9 9 14 16 18 19 22 25 25 25 25
19 21 23 24 24 23 23 22 20 18 16 15 15 13 13 11 10 7 9 12 14 14 16 18 21 21 23 23 24 25 25 25
23 24 25 25 24 23 22 21 19 18 17 15 15 13 9 10 9 13 15 14 14 16 18 18 18 21 22 23 24 24 24 25
24 25 26 25 23 21 20 19 19 20 17 17 16 15 14 14 13 14 13 11 11 11 17 20 20 20 21 23 23 22 21 21
24 25 24 24 23 20 19 17 23 20 19 18 15 12 12 9 8 10 10 13 12 14 15 17 18 20 21 21 21 22 25 24
24 25 26 22 21 21 23 19 19 20 20 17 18 17 8 9 9 9 11 11 13 13 16 17 19 19 20 20 23 26 28 26
25 25 25 24 20 20 18 18 19 19 18 20 14 16 5 5 9 12 12 12 13 14 16 18 19 18 18 21 22 25 23 23
24 24 23 23 19 18 17 21 17 19 20 12 7 3 7 9 12 13 14 13 14 16 19 17 19 18 22 25 24 19 16 13
23 24 21 17 18 18 18 18 21 21 12 4 7 10 10 9 13 14 14 15 17 17 17 18 19 21 18 18 14 16 13 11
18 16 16 16 17 18 18 19 18 14 8 7 8 8 11 15 13 12 15 17 17 18 18 17 19 21 17 17 15 15 12 11
12 13 14 16 18 19 18 14 8 8 9 9 9 12 11 10 11 16 17 15 18 19 17 22 27 25 19 20 19 20 14 16
10 14 15 16 17 18 16 12 10 11 7 6 7 10 9 10 15 15 17 19 19 17 21 24 27 21 23 20 18 15 16 13
6 8 10 12 13 13 12 12 12 8 5 4 8 8 11 18 15 18 19 19 18 22 26 27 20 22 20 20 18 17 18 14

GFSFLT1_850_spd_051.txt.gz
Wind_Speed
27 27 27 21 22 24 25 25 24 23 24 23 18 13 11 12 10 6 6 4 1 2 4 6 7 9 10 15 15 17 22 21
27 27 27 31 28 31 25 25 26 24 23 19 18 15 14 13 10 9 7 5 1 3 5 8 8 9 11 13 16 21 21 21
28 24 28 32 33 32 26 23 21 20 18 16 14 13 11 10 11 10 7 5 3 4 4 8 12 14 16 18 19 20 20 22
30 27 21 30 35 31 24 22 16 17 16 9 12 15 16 16 14 8 7 7 5 8 15 15 15 17 17 18 19 21 23 26
29 28 25 21 28 26 19 16 14 20 17 18 18 21 18 10 4 7 8 7 8 12 14 16 17 16 17 18 20 24 24 24
30 30 27 24 23 18 17 15 21 18 23 19 18 12 11 14 15 14 10 6 10 12 12 10 11 14 16 19 24 24 25 27
33 31 29 27 26 25 21 24 21 21 23 19 17 15 18 18 15 15 10 4 6 11 13 12 12 15 19 24 27 26 25 25
33 32 28 21 18 25 26 23 23 28 24 19 18 18 20 19 15 13 13 11 14 12 16 17 19 23 27 26 25 24 25 24
25 24 23 20 23 20 23 29 29 27 26 22 21 19 19 17 16 15 14 16 15 21 20 24 27 27 24 23 23 24 23 22
22 23 23 26 27 27 27 24 25 24 22 22 24 23 23 19 19 18 19 16 16 24 23 23 22 23 22 22 23 22 22 25
23 27 27 28 28 28 26 21 21 22 24 22 23 24 21 18 16 15 16 14 17 19 22 21 20 21 21 21 21 20 23 24
26 29 29 30 28 28 24 25 19 26 27 26 27 25 22 19 15 13 9 14 20 17 20 21 21 22 21 22 22 24 27 27
28 28 30 30 31 31 27 26 24 28 28 26 20 17 14 16 4 9 15 18 16 19 20 21 22 22 23 22 23 26 26 24
29 29 30 33 34 33 31 28 23 26 22 19 14 9 5 5 13 11 13 16 20 21 22 23 21 21 23 25 26 28 22 20
30 31 33 38 30 27 27 24 23 24 21 13 3 5 8 11 9 12 20 20 22 23 23 20 20 21 23 25 27 21 20 16
28 31 29 30 25 21 21 24 24 20 16 10 7 9 13 11 13 18 18 19 22 22 22 22 22 24 27 27 26 18 21 21
6 22 25 25 24 23 23 25 21 15 13 11 14 12 11 13 16 14 19 23 19 22 25 25 24 27 28 32 22 21 20 17
6 12 16 20 23 23 25 21 18 16 17 15 9 10 7 11 13 16 21 20 23 26 26 24 27 29 33 23 19 19 18 17
6 4 11 17 19 21 19 15 16 17 13 6 3 3 7 10 16 19 23 23 22 24 25 27 29 29 28 21 19 20 20 19

GFSFLT1_850_spd_054.txt.gz
Wind_Speed
40 39 36 32 31 35 34 35 31 28 25 22 21 22 17 12 10 7 8 10 10 8 7 6 6 7 10 12 14 15 17 19
41 41 36 32 31 29 30 30 29 26 26 24 24 22 17 14 12 11 13 11 9 7 5 5 8 9 10 12 14 16 19 22
41 41 39 35 31 29 26 26 24 25 25 24 22 19 16 13 13 15 13 10 7 5 6 9 10 10 12 15 16 18 20 22
43 42 40 37 35 30 25 25 24 25 25 24 21 18 15 18 18 16 13 11 8 6 7 10 13 15 16 16 18 20 22 24
41 44 42 40 36 31 26 25 23 22 26 25 22 22 24 21 16 14 13 12 9 8 11 11 14 17 19 20 20 21 24 25
43 43 39 40 36 33 30 27 24 21 26 25 18 18 17 15 17 17 15 11 8 7 10 13 15 17 16 17 19 23 27 26
41 40 35 31 28 27 30 25 21 22 28 23 19 17 18 20 22 21 17 14 11 13 13 15 15 16 16 19 23 26 27 25
40 38 34 32 32 34 27 22 22 26 24 23 21 18 19 20 22 23 21 20 19 17 15 11 14 17 19 23 24 25 24 25
41 38 33 32 27 28 23 23 27 24 25 23 23 24 22 21 20 22 22 18 12 8 6 16 18 24 27 25 24 23 25 25
39 37 34 26 24 24 26 26 25 24 25 26 27 21 21 19 20 18 17 8 7 11 14 18 22 23 25 25 26 26 26 25
30 30 27 24 24 27 25 22 24 28 31 26 25 23 22 23 25 25 20 16 15 18 17 17 22 23 24 26 26 26 25 24
27 26 25 25 26 25 23 26 26 30 28 28 28 25 26 24 19 12 11 8 15 15 22 20 23 25 27 27 25 25 24 25
27 27 28 30 30 29 28 32 33 33 33 34 33 29 25 24 22 14 15 11 9 17 18 20 25 28 26 25 25 25 26 28
33 34 34 36 37 34 37 37 35 34 35 34 30 25 22 17 16 12 10 8 9 20 18 24 28 25 24 24 25 26 29 29
36 36 38 39 40 41 39 32 32 29 31 26 24 21 20 18 7 3 6 9 17 16 24 29 26 25 26 23 25 28 29 24
33 34 34 36 35 32 32 31 29 30 28 26 22 21 14 12 12 13 10 13 12 24 27 25 23 29 25 25 27 30 26 23
23 29 28 29 32 32 31 28 27 27 26 25 21 15 16 13 11 10 6 14 25 23 20 23 27 26 24 27 29 28 23 21
7 8 20 24 29 31 28 28 28 26 23 18 15 15 13 5 3 8 21 21 19 19 24 23 24 25 27 29 29 29 21 20
13 16 23 25 26 27 29 27 24 21 18 15 12 10 5 4 8 14 17 19 19 23 22 24 27 27 28 28 29 27 23 23

GFSFLT1_850_spd_057.txt.gz
Wind_Speed
28 32 33 29 27 27 26 26 26 27 24 25 23 22 21 18 15 13 12 13 13 12 10 8 6 5 8 11 12 12 13 16
31 30 30 29 32 34 32 30 29 28 27 28 26 25 23 19 14 14 14 14 13 11 9 5 5 8 10 11 11 11 15 20
36 34 34 34 34 33 33 32 31 31 31 29 28 24 21 16 15 13 13 14 12 10 7 7 8 9 10 11 12 14 17 21
39 41 39 37 39 35 32 33 34 35 31 29 26 24 20 19 19 17 16 15 13 11 9 9 9 9 11 13 16 17 18 20
42 44 42 44 45 38 32 33 35 34 30 29 29 28 25 25 21 18 17 16 13 11 10 10 9 11 13 14 15 16 19 22
47 46 43 44 44 41 36 35 34 31 28 29 30 28 24 19 19 19 18 15 14 13 12 11 10 10 10 14 15 17 21 23
46 46 45 45 43 42 39 32 31 30 29 27 30 25 19 19 20 21 18 16 16 17 15 13 9 8 11 14 19 22 24 23
46 46 46 46 44 39 40 35 32 29 27 27 27 21 17 18 18 20 21 22 23 22 19 14 11 10 16 22 23 26 24 23
45 46 45 44 40 40 38 29 32 28 28 26 24 22 19 19 21 22 26 27 27 23 17 16 13 18 18 18 22 22 23 22
44 42 43 39 37 35 24 22 24 25 25 25 25 23 25 28 27 25 28 29 27 18 14 12 15 16 17 20 20 21 21 21
38 40 37 37 32 28 24 24 23 25 26 25 26 27 30 29 29 33 32 27 16 20 17 14 13 14 18 21 23 22 21 21
26 29 34 34 30 27 24 24 25 28 27 28 29 31 33 32 32 31 30 27 26 16 22 13 9 15 20 23 24 22 22 22
20 24 28 30 29 28 28 28 30 30 32 32 33 33 34 32 30 28 21 17 17 15 6 8 14 19 21 23 22 21 21 23
27 29 29 28 29 32 32 34 36 34 36 37 34 32 31 26 24 19 20 15 7 4 9 11 17 20 22 21 22 20 22 25
31 32 33 33 33 32 33 38 37 37 38 37 34 33 27 24 20 17 10 6 3 7 11 19 23 22 20 23 20 20 25 26
30 31 31 31 33 34 35 33 33 33 33 31 27 26 23 20 15 12 8 5 7 15 19 24 19 19 22 21 21 22 25 25
15 23 27 29 32 32 33 29 29 28 28 26 24 19 13 11 12 9 3 7 16 17 24 19 19 21 20 21 22 24 25 26
4 7 16 21 24 28 29 27 28 26 24 21 17 13 14 11 7 6 16 15 13 22 19 20 20 21 22 22 24 25 26 28
5 5 9 14 19 23 26 26 24 23 21 18 17 14 13 12 8 23 14 14 19 19 21 20 22 22 23 24 24 26 29 27

GFSFLT1_850_spd_060.txt.gz
Wind_Speed
24 21 24 29 25 23 23 22 21 21 23 22 22 21 21 17 15 12 13 14 13 13 14 12 10 8 6 7 7 7 7 10
27 22 26 27 28 26 26 24 24 25 25 25 25 24 22 19 17 15 14 13 15 15 13 11 9 7 5 5 5 6 10 15
32 30 29 33 30 27 26 25 25 27 26 26 24 22 22 19 18 17 16 16 16 14 12 10 8 6 4 4 5 9 13 16
31 33 33 34 32 30 28 27 26 28 27 27 25 25 24 23 22 21 19 18 16 14 13 10 8 7 6 5 8 11 14 16
33 34 36 37 34 31 30 31 31 32 32 31 30 30 30 28 24 19 19 20 18 16 14 10 10 10 7 7 12 13 16 19
38 39 40 39 36 33 32 33 33 35 34 33 33 33 29 22 18 20 21 21 19 16 15 14 14 12 7 7 10 15 20 22
41 40 39 39 38 35 35 37 36 36 35 37 36 35 26 24 22 22 24 23 20 18 18 17 16 12 11 8 16 20 20 19
43 43 42 40 40 35 36 36 39 38 36 39 39 30 27 25 21 22 24 23 23 23 24 25 24 18 17 10 12 16 19 20
43 45 45 44 40 38 39 38 34 38 40 38 31 27 23 19 19 20 23 24 25 26 26 24 18 21 19 15 20 16 19 19
44 44 44 44 42 40 40 40 36 34 34 28 28 28 24 23 22 24 24 26 30 31 31 29 18 27 17 17 12 19 19 18
33 40 42 42 40 38 35 37 30 25 29 30 29 23 24 25 27 29 29 30 32 31 24 24 20 19 16 10 13 17 17 16
22 29 33 36 36 34 31 30 28 25 22 24 24 26 28 30 30 31 31 30 31 24 23 21 19 13 7 11 15 16 17 16
15 18 22 28 29 27 29 28 24 23 24 25 28 30 32 32 33 32 28 27 22 24 19 15 12 7 11 15 16 17 17 17
14 16 17 19 23 28 30 22 23 26 27 30 32 32 33 33 29 27 21 20 21 15 8 7 6 10 16 16 16 18 18 19
18 19 22 23 26 27 23 24 24 25 29 32 30 31 30 25 20 16 17 12 10 10 6 7 11 16 16 16 20 19 20 21
22 23 22 21 23 22 21 23 25 28 29 28 28 27 23 15 18 14 12 10 5 6 11 16 17 20 18 20 20 21 21 24
9 15 17 20 22 21 20 19 19 18 21 24 23 21 16 15 13 11 7 7 11 16 25 19 17 17 21 20 21 22 23 24
6 2 4 9 12 13 15 16 17 18 18 19 18 14 12 9 9 10 11 11 22 16 14 15 18 22 22 22 22 24 25 25
8 6 4 2 5 9 12 15 17 16 16 14 14 13 13 14 7 7 18 26 15 16 18 20 22 23 23 22 23 26 27 27

GFSFLT1_850_spd_063.txt.gz
Wind_Speed
23 23 24 26 26 26 23 18 16 16 17 20 22 24 23 21 20 17 16 12 10 10 12 13 12 10 8 7 6 5 5 7
24 22 23 28 29 27 26 23 20 21 23 25 26 26 24 22 20 19 13 12 12 14 15 13 12 12 9 8 6 6 6 7
29 26 24 27 32 31 27 25 23 23 23 24 25 23 24 21 21 19 15 16 16 16 15 14 15 12 10 9 8 7 6 8
31 33 30 28 31 32 29 26 26 26 26 26 26 25 25 25 25 18 19 18 17 16 16 16 15 12 12 12 9 6 6 9
28 34 36 35 34 34 32 29 28 28 28 29 28 29 29 28 23 18 19 18 19 20 20 19 17 16 15 13 10 7 8 11
32 34 34 34 32 32 30 28 27 28 28 28 29 30 30 27 23 21 22 21 23 24 22 21 20 20 18 15 13 10 11 13
34 33 33 34 32 31 30 28 28 27 27 28 30 32 32 30 25 25 25 26 27 27 25 24 24 23 21 19 17 17 14 15
36 35 37 37 35 34 33 33 32 32 32 29 31 34 34 33 27 28 27 29 30 29 28 28 27 24 24 20 19 24 20 26
37 36 36 37 36 35 32 35 35 31 24 29 31 35 35 36 29 28 27 29 28 30 30 28 27 25 22 18 22 19 19 14
32 36 37 38 39 39 36 37 35 34 32 26 33 33 36 35 32 30 27 28 31 32 30 28 27 22 23 22 17 16 14 14
18 25 31 35 37 35 36 37 34 36 34 31 32 30 31 34 31 30 29 30 33 33 30 26 26 21 19 17 16 11 13 14
8 13 18 24 29 30 30 32 30 31 28 33 29 25 28 27 30 32 31 33 32 32 21 25 22 18 11 10 11 14 14 15
4 6 9 13 16 18 20 22 24 23 24 26 24 21 23 27 30 29 30 28 28 24 22 19 14 11 12 7 13 15 15 16
9 10 10 12 12 14 17 18 17 17 19 19 22 24 26 28 27 25 20 17 21 16 16 11 9 12 8 11 14 14 17 17
10 13 13 14 15 16 15 15 16 18 20 20 22 23 23 19 18 12 5 19 18 15 12 14 12 13 13 12 14 17 19 19
10 12 11 12 12 13 15 17 19 19 17 16 14 14 12 12 15 10 15 12 11 13 7 13 18 19 16 13 17 20 21 22
4 5 7 8 8 7 6 7 8 8 9 9 10 10 13 15 11 11 12 11 4 6 17 18 16 13 13 15 20 23 24 25
11 11 8 5 4 4 4 5 5 6 6 9 12 14 13 11 11 9 6 2 9 21 16 13 14 16 18 21 22 26 27 28
14 13 11 9 7 7 7 8 8 8 11 14 14 13 13 12 8 5 11 13 14 10 12 15 18 20 21 23 24 26 29 31

GFSFLT1_850_spd_066.txt.gz
Wind_Speed
18 20 22 25 24 20 18 16 14 14 15 16 18 20 19 20 22 21 19 19 17 17 16 15 16 15 14 12 9 7 5 3
20 21 25 27 24 23 21 19 16 15 17 17 18 19 19 20 23 22 20 21 20 19 18 18 18 16 15 13 10 7 4 7
22 23 24 25 26 26 23 21 18 17 17 18 17 19 18 19 23 23 24 24 19 18 20 19 19 18 17 14 11 8 5 8
25 26 26 25 27 27 25 22 20 20 18 17 16 16 16 19 25 26 25 21 20 20 20 20 21 19 18 16 14 12 8 8
24 28 29 28 27 26 27 23 22 22 23 19 20 19 18 18 23 23 23 22 22 22 22 24 22 22 20 18 17 13 13 6
27 29 29 28 25 26 26 26 24 23 24 25 23 22 19 19 22 23 24 24 25 25 26 26 25 24 22 20 20 19 14 15
28 26 25 27 27 27 27 27 26 26 28 29 28 24 22 26 27 26 26 26 29 28 27 27 26 26 26 25 24 19 13 18
28 27 27 28 29 29 30 29 29 28 30 28 27 25 24 27 28 30 28 27 32 31 29 29 31 30 28 27 24 17 17 17
29 29 29 29 30 30 32 32 31 31 29 28 26 22 16 28 32 34 30 29 30 29 30 32 33 32 31 27 20 20 19 16
22 26 27 28 28 31 35 33 28 28 30 27 24 26 26 32 31 33 29 30 29 32 32 34 32 33 27 24 20 20 15 14
11 17 23 24 24 24 26 28 26 24 27 30 30 31 24 26 29 30 30 29 29 29 32 34 35 22 27 24 20 14 14 13
5 8 12 15 18 19 20 23 22 21 21 25 27 28 28 24 27 26 31 29 29 23 28 28 22 24 23 16 12 13 12 12
3 5 7 10 13 14 15 15 17 17 17 17 20 20 23 21 17 19 26 30 30 32 25 20 21 18 16 10 16 9 13 14
6 6 7 8 10 11 11 11 13 15 18 19 19 19 19 21 21 23 24 23 3 8 22 22 23 13 18 15 12 13 16 16
8 9 9 9 10 11 12 11 13 15 16 16 16 17 15 14 14 13 11 9 9 15 18 14 13 11 15 13 14 15 17 18
9 10 10 10 10 10 11 12 13 13 12 9 7 7 7 8 9 11 12 9 14 14 8 5 12 15 16 18 14 16 18 20
6 9 10 10 10 10 10 10 9 8 9 8 8 8 9 11 13 14 13 15 11 4 10 13 12 15 13 11 15 19 20 23
9 11 12 12 12 11 12 12 11 10 11 11 11 12 13 13 13 12 8 3 7 10 10 8 8 10 16 16 19 23 24 25
11 12 14 14 15 15 15 15 16 15 15 15 15 15 15 14 8 3 3 7 9 4 6 8 10 11 18 19 21 25 24 25

GFSFLT1_850_spd_069.txt.gz
Wind_Speed
17 19 24 29 31 29 22 19 18 18 17 18 17 16 16 15 16 16 19 19 20 17 15 16 16 15 13 12 11 9 8 7
20 22 23 25 27 24 21 18 17 16 15 16 16 17 18 17 19 20 20 20 20 19 15 18 17 14 14 16 14 13 8 8
22 25 28 27 27 22 21 19 17 15 15 16 16 17 18 18 20 20 18 20 21 21 18 19 18 15 16 17 15 11 9 9
25 26 28 28 27 25 23 20 18 18 16 16 16 17 16 18 19 19 23 22 20 21 22 20 19 17 17 18 17 14 11 9
25 26 28 29 28 26 25 23 21 20 21 19 19 18 19 18 20 20 21 21 23 22 23 22 22 21 19 19 17 15 14 14
27 29 30 29 28 28 26 25 24 23 23 22 20 20 19 16 19 18 20 23 22 25 23 22 25 25 23 21 18 16 19 11
26 28 28 29 29 29 27 28 27 25 24 25 24 22 21 19 21 20 20 22 23 26 26 30 28 26 22 20 19 20 20 14
28 28 29 29 30 30 28 28 29 28 27 26 27 26 23 24 24 24 26 28 26 28 29 32 30 27 21 19 23 25 18 17
31 30 30 30 30 30 29 29 29 29 29 29 27 26 24 24 25 25 26 25 26 27 28 33 31 23 23 22 27 19 18 18
26 30 30 29 29 31 34 30 28 28 29 27 26 25 25 26 26 27 26 26 29 25 27 29 28 24 26 34 24 20 23 22
14 22 27 28 27 28 29 28 28 27 27 27 24 24 26 28 27 23 24 23 24 27 28 24 23 30 31 21 19 24 25 18
7 13 19 24 25 25 26 26 26 26 25 24 23 21 23 23 24 22 21 20 20 23 21 23 31 31 24 21 21 20 14 17
5 7 11 15 19 21 22 22 23 23 22 22 21 21 24 21 23 22 18 19 21 25 23 26 18 16 20 24 16 16 19 17
6 8 10 12 14 17 18 18 17 19 18 24 27 24 21 21 20 19 17 15 17 15 8 10 15 21 15 11 15 16 13 11
10 9 10 11 13 14 15 18 21 26 28 28 24 21 17 16 16 15 13 13 16 10 9 11 14 11 10 12 13 8 11 16
11 11 11 11 13 14 18 22 22 22 21 21 19 17 14 12 10 11 12 13 10 8 10 11 8 9 13 12 12 16 14 15
7 9 11 12 12 12 12 14 15 16 17 16 14 12 11 11 11 14 15 11 11 11 9 8 11 11 10 9 10 13 15 18
6 10 12 12 13 14 11 13 14 13 13 14 14 14 14 14 14 13 12 11 8 8 8 7 3 4 10 14 16 19 21 20
10 12 13 13 15 15 15 14 15 16 17 17 17 16 15 16 15 12 9 6 5 2 2 3 5 6 14 18 20 21 21 20

GFSFLT1_850_spd_072.txt.gz
Wind_Speed
20 18 20 25 24 33 39 36 31 29 32 28 25 21 20 21 23 26 24 25 25 23 18 16 18 18 16 17 15 14 13 10
24 24 19 26 38 41 32 28 23 23 26 25 23 27 28 27 32 30 26 24 23 21 17 17 19 19 18 16 18 17 17 18
24 29 30 36 38 29 22 17 20 23 23 22 24 23 22 21 21 26 24 24 24 21 20 21 20 21 18 20 21 21 17 15
29 32 34 33 30 29 27 28 20 19 19 23 23 21 21 22 26 27 25 24 22 21 20 23 22 22 23 25 22 20 16 19
32 33 36 37 31 26 28 29 29 20 23 27 26 26 27 26 26 26 23 26 24 22 22 24 25 22 24 27 22 23 21 20
37 37 37 40 35 33 29 30 27 28 24 24 27 24 23 24 25 26 24 23 25 25 26 27 30 26 27 30 26 24 23 24
32 35 35 37 36 36 34 31 30 28 32 27 24 25 25 24 24 26 28 26 26 24 24 30 28 27 29 31 25 24 28 26
37 37 38 38 39 39 37 36 35 32 31 31 32 28 27 26 25 30 27 27 26 25 27 33 30 29 32 31 27 27 31 29
34 33 40 40 40 41 41 39 39 36 36 33 31 31 30 27 29 29 29 28 29 27 25 28 31 31 32 32 27 31 35 28
24 33 35 40 41 42 42 39 38 38 38 39 35 33 32 33 30 34 31 27 28 27 22 21 29 30 30 28 30 31 30 22
14 24 33 36 37 40 40 37 37 35 34 36 37 37 33 30 33 31 29 28 27 23 24 26 26 29 30 28 32 31 25 25
5 9 15 32 34 35 39 38 35 30 32 35 35 33 30 31 33 33 29 26 20 23 26 25 24 28 31 31 24 20 23 23
6 7 10 13 19 20 30 32 30 28 29 33 34 33 30 31 31 28 27 26 20 18 18 19 23 22 22 23 25 24 22 17
10 8 9 11 13 16 15 22 21 24 27 27 28 34 30 30 28 24 23 20 17 14 16 16 16 18 21 22 20 13 15 18
11 16 14 11 12 14 13 16 20 24 26 30 31 31 23 24 23 22 19 18 15 15 16 14 15 17 16 12 12 13 12 11
9 9 18 16 15 20 25 27 28 29 26 26 25 25 22 20 19 17 16 15 15 15 15 13 12 11 11 12 12 10 13 14
1 7 17 20 20 22 22 23 24 22 20 18 16 17 16 16 14 13 15 17 16 13 10 9 9 12 13 12 11 12 12 16
3 5 17 20 19 21 19 19 19 19 18 16 14 13 11 13 14 16 15 13 12 10 9 8 9 5 5 8 10 13 15 18
10 13 14 17 18 16 15 12 16 16 15 15 15 15 17 17 17 15 12 12 11 8 5 3 2 8 10 13 15 17 18 19

GFSFLT1_850_spd_075.txt.gz
Wind_Speed
18 19 20 24 26 26 26 27 26 27 28 28 33 39 35 35 39 25 22 24 23 24 23 22 25 23 21 20 19 16 14 11
16 18 24 24 20 25 28 31 29 28 31 32 35 37 33 28 23 23 24 25 29 24 23 24 24 25 24 22 19 18 19 17
24 21 27 28 35 36 35 33 33 35 37 36 33 28 27 26 24 26 27 27 25 28 28 27 26 24 23 23 23 23 22 23
31 28 31 37 39 34 29 27 28 29 31 29 26 24 23 27 30 31 32 32 28 28 26 27 26 24 25 26 26 25 25 25
35 32 32 38 35 30 27 26 27 25 26 28 30 31 35 33 34 34 33 29 28 29 28 26 28 28 27 29 29 25 24 27
41 38 34 38 32 30 29 30 28 26 28 27 30 31 29 28 29 31 32 30 27 29 30 27 29 29 26 28 30 30 27 27
42 38 38 38 34 31 31 32 32 29 29 30 31 37 33 33 31 35 34 33 30 29 30 29 28 30 30 33 30 33 34 32
44 44 44 40 38 36 35 35 39 37 35 32 36 38 37 33 36 38 37 35 34 32 28 29 27 28 34 33 32 36 34 33
45 49 49 47 40 40 42 41 40 43 40 39 38 38 38 36 34 35 35 35 33 25 22 24 23 25 30 34 35 38 33 27
45 46 50 48 44 42 42 44 44 42 42 42 41 41 41 37 37 37 35 32 29 27 24 20 19 23 32 35 35 30 26 29
42 43 48 49 48 43 43 44 45 44 43 45 43 41 39 40 36 36 38 33 30 29 20 22 20 23 27 33 29 31 30 29
10 12 48 47 50 48 46 46 50 47 42 43 44 44 42 37 38 36 35 30 30 27 22 18 21 22 21 22 29 28 28 26
7 7 2 37 44 47 47 46 45 37 39 41 43 42 43 36 30 36 25 31 23 22 18 19 19 19 20 23 25 25 22 20
15 10 8 8 18 34 39 45 49 29 27 33 35 38 35 33 32 29 33 28 22 19 18 16 16 19 20 19 18 18 20 18
17 16 13 10 11 17 32 34 39 28 31 31 30 33 30 28 25 24 19 21 21 19 17 14 16 16 16 17 17 18 15 17
11 24 22 21 19 17 23 30 31 30 29 28 27 29 29 25 22 20 19 19 17 17 17 18 18 16 15 15 16 16 14 12
5 5 28 27 25 23 23 23 23 21 22 23 23 23 22 19 17 17 17 18 17 17 18 16 16 15 15 15 14 13 13 14
10 12 24 27 28 27 25 26 24 22 19 15 16 16 17 16 15 16 16 17 17 16 15 15 13 12 11 12 10 9 10 12
12 16 24 27 27 26 23 20 18 18 18 18 17 16 16 15 16 17 18 16 16 15 14 11 13 11 10 10 11 13 14 16

GFSFLT1_850_spd_081.txt.gz
Wind_Speed
7 8 8 10 12 13 18 28 36 40 45 45 38 37 37 33 33 31 30 28 24 20 20 19 19 18 17 15 13 14 13 11
8 9 11 15 16 14 18 24 30 35 40 39 33 38 36 35 33 30 26 24 25 27 21 20 19 18 17 16 15 16 16 16
11 12 16 17 21 20 18 19 27 32 39 41 38 42 40 37 31 32 31 31 31 22 21 21 20 19 18 18 19 20 20 20
21 22 21 21 21 23 20 20 21 29 40 41 43 40 39 37 38 37 37 31 25 22 21 21 21 22 21 22 24 25 24 25
20 27 25 25 24 25 24 24 26 28 34 40 44 43 42 44 42 39 39 35 30 25 25 24 25 26 25 27 28 30 28 29
27 24 20 20 24 26 26 27 30 30 32 35 37 40 45 45 39 34 45 41 39 36 31 28 27 27 29 33 33 33 33 31
29 23 22 23 26 27 26 26 29 33 36 39 39 42 45 46 40 39 40 43 40 38 35 31 30 31 34 34 33 33 35 33
34 32 31 31 33 32 31 32 33 36 37 38 39 38 38 38 37 36 38 40 40 38 35 35 35 35 36 36 36 33 33 33
36 36 35 36 37 37 37 38 38 38 38 38 37 37 38 39 38 37 38 38 38 36 36 37 38 40 40 37 36 34 30 29
38 38 38 37 39 41 41 40 38 39 39 38 39 40 42 43 41 41 40 38 38 37 35 35 39 41 40 38 38 34 28 30
37 39 41 40 39 40 42 42 41 40 41 41 41 42 43 44 43 42 41 41 41 40 40 42 44 43 42 36 38 32 31 30
38 43 42 41 40 41 42 43 45 44 44 44 46 46 44 42 44 45 44 42 42 34 34 39 44 37 36 32 38 35 28 28
33 38 40 40 40 44 45 44 45 46 42 40 49 49 48 47 45 45 43 46 45 37 30 38 33 38 39 35 34 26 28 27
32 33 37 35 37 40 43 47 49 47 45 49 51 49 48 48 46 46 47 48 48 34 37 35 32 31 31 36 25 27 26 24
31 31 32 31 32 36 37 37 40 44 47 49 51 50 48 49 48 49 49 48 42 39 36 37 32 31 34 27 25 27 24 25
29 29 29 28 29 30 32 28 29 31 37 41 46 45 40 41 40 39 38 37 34 32 29 30 27 27 27 24 23 26 28 24
30 29 28 27 26 25 27 28 31 34 36 37 36 40 40 39 37 33 32 27 25 22 21 23 26 25 25 28 28 26 23 22
30 32 30 28 30 28 28 28 29 31 32 32 32 33 35 33 29 22 20 19 19 21 21 23 26 26 28 24 23 22 21 20
31 31 28 27 27 29 28 26 26 25 25 26 27 25 22 19 13 15 17 19 20 21 22 26 25 23 22 24 24 21 18 18

GFSFLT1_850_spd_084.txt.gz
Wind_Speed
6 7 7 7 7 13 19 26 29 32 36 38 35 44 38 38 40 36 38 30 28 28 27 26 23 19 17 14 12 10 8 8
10 9 9 10 10 10 13 20 33 38 37 35 38 40 36 37 40 35 35 37 34 30 27 25 20 19 17 15 15 12 11 12
12 11 12 14 12 13 13 15 27 35 36 38 38 40 36 33 36 34 31 32 31 29 27 22 22 19 18 18 17 16 15 16
16 14 13 15 15 16 15 17 23 29 33 37 36 36 35 33 35 35 34 31 29 26 22 22 21 18 19 19 20 20 20 19
17 15 14 14 16 19 19 18 22 26 33 42 38 41 44 38 40 38 34 31 29 27 24 24 21 20 22 22 23 24 24 24
23 18 15 16 21 22 21 22 21 27 35 39 40 41 43 44 41 38 34 34 35 32 31 26 22 26 25 25 27 29 29 29
25 20 19 19 20 21 22 24 26 27 31 38 43 45 45 42 45 43 43 40 39 38 36 32 31 31 31 29 30 30 32 31
32 30 27 26 27 27 26 29 30 32 33 36 40 40 44 43 43 46 44 45 42 43 44 40 38 38 35 33 33 33 35 36
34 34 32 30 30 32 31 30 30 31 32 35 33 36 39 40 42 45 50 47 46 43 47 44 42 39 37 36 36 37 39 37
32 34 35 33 33 34 34 32 31 31 31 31 33 35 37 39 41 45 48 46 38 39 42 42 41 38 37 38 40 41 41 39
29 31 34 36 34 33 34 34 32 32 32 33 34 35 35 36 37 38 40 40 39 40 40 38 37 37 37 38 38 36 30 30
24 28 30 33 36 36 35 36 37 37 37 36 35 36 37 38 40 41 41 41 42 42 41 39 37 35 41 38 39 34 29 38
18 22 24 27 30 34 39 39 40 40 38 37 36 37 40 41 42 41 41 42 41 44 45 43 36 28 42 41 33 37 35 33
21 20 21 23 25 29 31 36 41 42 41 39 39 45 47 44 48 45 43 42 42 42 44 43 30 37 40 40 34 33 34 36
24 22 23 23 23 25 26 28 31 36 40 41 41 44 44 41 39 39 41 41 42 44 44 43 42 44 39 34 30 32 32 28
24 25 26 25 24 25 23 23 26 27 30 35 38 44 45 44 42 41 42 44 42 39 36 37 37 33 37 33 34 34 27 24
29 31 30 28 26 23 24 25 26 27 27 28 30 32 32 35 36 34 35 36 32 28 28 28 31 29 30 31 26 24 25 27
26 35 34 30 30 28 27 28 27 27 26 27 26 24 26 28 28 28 28 27 23 22 23 24 23 25 29 24 24 25 25 24
28 31 33 33 32 28 25 25 23 21 20 20 20 20 21 21 21 20 16 15 18 20 20 18 19 20 23 25 25 21 20 19

GFSFLT1_850_spd_087.txt.gz
Wind_Speed
5 6 6 5 6 11 16 9 14 21 27 28 32 41 43 40 38 35 39 36 34 28 26 26 26 22 19 17 15 14 12 11
7 7 7 8 9 11 14 14 15 21 28 32 34 34 35 34 40 43 32 35 34 30 29 25 26 22 19 17 16 17 16 15
11 11 12 13 13 12 16 16 21 25 29 33 34 38 30 33 36 47 37 28 27 28 27 29 25 23 22 21 20 20 18 17
14 16 16 17 17 17 16 17 22 28 30 34 33 39 28 31 34 35 45 41 30 30 29 29 27 25 25 22 23 22 21 19
17 17 16 18 18 17 17 18 20 28 33 34 31 46 40 37 41 41 34 37 42 40 34 30 27 30 25 25 22 21 22 24
22 18 15 17 21 23 20 19 21 25 28 30 34 41 38 38 37 42 41 39 34 36 34 31 31 27 26 24 24 24 25 27
23 19 17 17 20 21 24 23 24 26 30 32 38 40 39 37 36 39 42 45 37 35 33 34 29 28 26 25 24 26 28 29
28 28 24 23 22 23 24 25 28 30 31 34 39 41 39 40 42 41 44 42 40 37 37 33 33 33 32 31 30 31 34 36
32 30 28 26 25 24 24 25 27 29 31 35 40 42 42 44 44 44 43 45 43 39 38 38 38 39 39 37 37 38 38 37
33 32 32 29 28 27 26 25 27 29 32 35 38 41 42 44 44 45 43 48 46 44 43 43 42 41 45 44 41 41 38 39
27 33 33 33 30 28 28 27 27 28 30 33 35 36 40 41 43 45 47 45 47 49 47 45 45 43 39 40 41 41 38 39
22 28 32 34 34 33 31 31 32 32 32 32 31 32 34 35 37 37 37 38 41 41 41 44 43 40 40 39 42 41 45 37
16 20 26 30 33 35 35 35 35 35 33 34 33 32 33 34 34 33 34 34 34 35 37 40 40 43 44 44 36 37 37 38
15 17 20 24 27 31 35 37 37 37 35 36 35 36 37 37 37 36 36 34 37 37 40 42 43 42 40 37 35 42 44 39
15 17 18 19 21 24 27 29 34 37 39 40 39 37 37 38 39 38 38 38 39 41 42 41 39 39 38 35 37 38 40 35
19 20 20 20 22 22 22 24 25 27 31 36 39 39 41 41 40 38 37 35 35 35 36 36 35 33 30 27 30 35 37 31
19 22 22 25 25 23 24 23 23 22 23 24 25 28 32 34 35 35 34 33 32 31 30 28 26 25 24 26 33 33 33 31
25 23 24 29 30 27 27 25 23 21 20 20 20 19 20 22 23 24 25 24 22 21 23 23 24 25 24 24 27 26 28 29
35 31 29 30 33 28 27 25 21 19 17 16 16 15 16 16 14 13 14 17 18 18 19 20 21 21 23 23 22 19 18 18

GFSFLT1_850_spd_090.txt.gz
Wind_Speed
6 6 5 6 6 9 9 7 7 8 13 34 36 48 44 47 42 41 39 37 33 32 30 28 26 22 21 20 18 16 12 11
8 7 7 7 8 11 13 9 14 14 20 27 25 31 42 42 41 44 42 35 30 28 27 24 20 16 21 17 17 15 14 14
11 9 9 10 11 12 13 12 11 17 22 27 32 35 42 40 40 40 41 36 33 30 24 23 21 22 17 21 18 17 16 17
15 13 12 15 15 15 16 15 14 18 23 27 29 37 42 41 43 42 36 39 35 33 32 29 31 28 25 22 21 21 15 17
17 16 16 16 17 17 17 18 18 20 22 28 32 35 37 44 45 46 41 44 37 34 32 32 28 25 26 26 27 23 19 16
20 18 16 17 18 19 19 19 21 24 24 29 33 34 24 33 43 49 44 37 33 29 30 29 26 28 30 26 27 25 22 21
19 18 17 17 19 19 19 21 23 24 29 29 33 35 32 29 35 47 49 40 39 38 33 31 30 33 31 28 29 25 25 26
24 22 21 20 21 22 20 21 24 26 27 31 33 32 35 27 34 40 38 44 47 46 43 46 40 35 31 29 28 27 27 27
27 25 22 21 21 22 23 23 23 28 29 29 28 27 31 28 33 32 40 43 39 41 39 39 38 32 35 32 30 28 25 26
27 27 25 23 23 23 24 24 24 26 29 29 29 29 30 27 27 31 31 35 36 38 37 41 39 37 35 32 28 31 29 29
25 26 28 26 25 23 23 24 25 25 26 28 28 30 32 30 30 30 32 33 33 31 34 43 39 36 35 31 32 30 36 35
21 24 24 26 25 26 26 26 26 27 26 27 28 29 32 33 32 32 32 32 34 36 38 40 45 41 36 34 34 41 39 40
17 20 23 25 27 26 29 28 29 28 27 28 29 29 29 32 35 33 32 35 34 34 33 34 36 37 37 42 48 47 45 54
15 18 22 24 26 27 28 30 31 30 29 29 30 31 32 33 34 34 35 35 34 32 33 33 34 35 35 42 41 45 47 43
15 18 21 23 25 27 28 29 30 31 32 31 32 32 32 31 30 30 32 33 33 32 32 31 32 32 32 34 39 40 39 39
17 18 20 22 24 25 25 25 28 30 31 32 33 31 31 30 30 31 32 32 32 31 30 28 28 29 32 35 36 33 30 29
9 15 19 23 25 27 27 26 25 26 27 28 25 26 28 29 29 29 28 27 25 25 25 28 31 31 29 25 24 29 30 35
16 16 20 24 27 27 24 27 26 25 23 22 22 22 22 23 23 22 22 21 22 25 26 26 28 27 28 30 30 30 29 29
20 22 18 18 21 22 25 23 25 25 24 22 22 21 21 21 21 21 21 20 21 23 22 22 24 24 26 25 26 25 22 20

GFSFLT1_850_spd_096.txt.gz
Wind_Speed
16 10 11 9 10 9 10 11 10 9 9 14 20 24 28 31 36 42 40 40 38 33 31 33 33 34 28 26 25 23 21 17
17 13 11 10 10 12 13 12 9 6 3 5 10 23 32 35 32 38 46 46 41 35 31 29 31 36 30 30 28 23 20 19
17 15 12 11 13 15 13 13 11 11 11 10 13 24 32 36 47 52 50 48 45 38 36 33 30 32 31 29 29 28 27 22
22 18 16 14 17 17 16 15 15 16 16 23 20 32 43 49 48 52 49 49 41 35 30 31 34 30 30 28 24 18 15 15
27 22 18 17 18 18 18 18 18 18 18 24 29 41 44 46 48 51 43 43 41 34 29 32 30 27 24 23 19 16 15 13
28 24 21 17 17 19 20 21 21 20 20 20 25 30 34 40 51 51 50 44 45 41 33 35 32 28 27 25 22 20 15 17
27 23 22 19 21 20 22 22 23 23 22 19 24 27 33 40 44 47 49 48 42 37 35 31 33 27 27 26 24 21 23 22
28 28 26 24 23 23 21 23 25 26 25 25 26 28 29 38 43 47 49 46 45 41 37 36 36 28 27 29 28 28 28 29
28 30 28 27 24 25 24 21 24 27 27 28 26 24 32 37 41 47 46 49 48 45 44 41 43 30 28 28 27 29 31 30
27 29 29 29 27 24 25 24 23 26 30 29 28 27 34 38 41 46 47 47 48 46 45 48 42 40 32 33 31 32 32 29
27 29 29 29 28 25 25 26 22 23 31 31 31 30 32 35 32 44 47 47 45 42 41 42 44 36 33 33 34 34 32 32
28 28 31 28 27 26 27 27 28 25 27 32 34 32 35 34 33 29 39 46 47 44 39 38 40 42 40 38 38 36 37 41
24 27 31 30 29 29 30 32 31 30 29 29 32 33 35 36 34 34 31 34 35 40 45 36 40 45 45 38 38 40 37 38
15 26 29 31 30 30 30 31 33 31 28 31 29 33 34 38 35 38 31 33 32 33 34 43 39 38 36 39 39 37 37 39
8 16 24 30 31 32 31 30 32 33 31 29 32 34 32 38 39 38 34 30 31 31 32 32 36 34 33 33 34 36 36 36
11 12 17 19 30 31 31 31 30 34 35 34 34 31 32 31 32 38 38 35 35 37 33 32 32 33 34 36 34 31 32 33
25 16 11 23 23 29 32 32 34 32 36 36 34 34 34 36 35 34 34 34 34 30 30 30 31 35 35 33 32 33 34 38
25 22 17 11 22 26 30 33 33 35 32 35 35 34 35 33 33 32 32 32 29 32 34 35 33 35 35 33 32 35 37 28
29 25 22 11 12 22 28 31 32 33 34 33 32 32 32 31 31 29 31 35 36 35 34 32 33 33 33 32 31 29 28 23

GFSFLT1_850_spd_099.txt.gz
Wind_Speed
26 20 17 15 14 11 10 11 11 15 16 17 17 16 18 21 35 41 41 44 40 39 43 38 34 36 32 31 28 26 24 19
28 22 20 16 12 11 13 14 14 13 14 17 22 23 21 26 32 39 41 36 37 38 41 37 34 35 32 31 27 27 26 20
32 27 21 14 12 15 17 15 13 11 12 13 18 27 28 28 35 36 41 40 38 38 41 37 37 37 34 33 32 32 29 26
36 30 22 15 16 18 19 16 13 11 8 11 15 22 30 35 39 46 47 45 42 35 39 36 38 36 37 34 34 33 30 27
37 31 23 18 17 21 19 18 15 11 7 8 12 23 31 38 39 40 48 50 39 40 38 37 36 34 35 35 32 32 32 32
38 32 23 19 18 24 23 19 17 17 12 11 12 27 31 33 40 46 52 54 46 38 37 38 36 37 34 30 33 32 29 24
37 29 24 21 18 25 26 23 21 20 18 18 16 23 32 38 45 47 53 54 54 48 46 45 33 34 35 31 32 29 24 20
37 33 29 24 22 26 27 27 25 23 24 22 21 23 31 36 42 47 55 53 49 46 42 42 47 36 36 32 31 29 25 24
38 35 31 24 23 27 29 30 28 27 27 26 26 26 30 36 37 50 53 44 38 45 50 47 35 35 40 37 30 28 26 27
39 36 30 24 24 28 29 29 30 32 31 28 29 27 27 31 33 41 43 45 47 51 47 40 36 37 36 31 31 31 30 34
37 36 32 24 23 24 27 27 30 33 33 32 32 31 28 29 36 42 43 45 48 48 42 42 40 39 44 35 29 29 30 30
39 39 35 27 25 26 27 29 27 28 37 33 33 33 30 30 36 39 39 40 46 45 44 45 44 43 43 44 43 36 33 34
38 38 38 34 28 27 26 29 28 27 28 36 34 35 32 34 33 36 36 38 39 39 40 42 41 38 39 43 43 37 34 35
28 36 38 36 32 29 26 28 29 28 26 31 36 37 36 37 36 35 33 32 37 40 41 43 42 39 37 41 44 41 40 38
23 32 38 37 35 33 30 27 29 31 30 29 33 39 39 37 39 38 36 33 32 31 34 38 40 38 37 37 39 38 38 37
33 27 13 35 36 35 34 30 28 33 35 34 33 32 34 36 39 40 38 37 33 30 28 29 30 32 39 38 35 33 32 34
31 30 30 12 37 38 36 35 33 31 37 37 35 32 33 34 33 39 39 37 33 31 33 33 34 34 37 38 35 36 36 36
31 31 34 28 17 26 36 35 34 34 35 37 37 35 34 34 32 36 38 38 37 36 37 36 36 37 39 38 36 37 38 37
30 32 34 31 25 17 27 36 35 36 37 37 40 38 36 35 34 33 34 39 42 40 39 38 40 40 41 39 36 35 33 28

GFSFLT1_850_spd_102.txt.gz
Wind_Speed
37 33 28 22 17 13 12 12 15 16 18 16 15 13 13 15 28 27 31 52 51 47 46 46 46 45 43 42 43 36 30 31
38 34 29 24 19 15 11 17 17 18 20 19 20 18 17 16 29 39 33 43 45 46 47 48 47 45 41 38 34 32 27 32
37 34 31 26 20 16 14 18 17 18 19 21 23 21 17 17 31 41 44 48 42 44 48 49 48 43 40 37 34 33 30 30
42 39 35 27 23 18 17 19 16 15 15 15 18 23 22 20 28 48 47 46 42 45 48 48 47 43 39 40 34 35 36 32
46 42 36 31 24 20 19 19 16 12 12 16 18 23 28 28 27 47 47 45 42 40 48 44 42 44 40 41 33 35 36 36
49 47 39 30 24 21 19 19 16 12 11 11 16 20 27 29 34 37 40 42 42 42 46 40 41 40 39 42 37 36 35 34
43 45 36 30 25 23 19 20 17 14 12 11 15 20 26 30 38 44 44 45 48 47 46 44 44 45 47 40 36 34 34 33
46 44 40 34 29 26 22 21 20 18 16 14 14 18 20 26 38 41 47 45 47 47 45 47 47 44 36 36 35 32 35 33
49 45 41 35 29 26 24 23 21 22 22 19 16 13 17 22 28 34 44 51 48 46 48 44 42 41 44 43 36 36 34 30
44 42 39 34 29 27 26 24 23 24 24 23 21 19 19 19 25 30 38 48 50 47 43 40 36 31 31 32 36 39 34 30
38 42 38 32 28 26 26 24 24 27 26 26 25 24 23 22 26 33 37 46 52 47 40 39 40 39 39 36 40 35 31 32
18 40 37 32 29 28 27 25 26 28 30 29 27 26 25 25 28 32 35 37 34 39 48 47 44 41 38 33 38 40 37 33
23 27 37 35 31 29 29 27 27 27 31 33 32 28 30 29 28 28 32 33 37 38 39 42 43 37 38 39 40 39 36 33
7 16 22 31 34 31 30 29 29 27 30 35 34 33 34 34 32 32 33 33 33 34 36 38 44 38 40 40 40 40 42 43
29 7 5 12 22 31 31 31 30 30 31 33 38 38 36 37 33 32 35 35 34 35 36 37 40 38 39 42 41 38 38 40
24 29 4 14 15 30 32 33 31 34 34 34 35 38 37 37 37 34 34 35 35 34 35 35 36 37 40 41 39 37 36 38
20 22 24 13 17 16 30 34 34 34 36 37 35 33 35 36 38 37 36 36 36 33 32 32 30 32 37 37 39 38 37 37
12 20 20 18 15 13 8 25 34 37 39 38 37 35 34 35 33 37 39 39 37 36 33 32 33 34 33 32 33 35 36 38
20 19 20 22 20 16 13 9 25 33 40 40 40 37 35 35 33 34 34 38 41 41 38 37 37 38 38 37 36 36 38 36